Location: Sungai Kamana Besar
(2.6333°N, 113.4333°E)
Time: 04:44:09
(UTC+00:00)

CSL-04 Rocket - Pass Details

Date: 29 May 2022
Orbit: 807 x 859 km, 98.9° (Epoch: 26 June)

Event Time Altitude Azimuth Distance (km) Brightness Sun altitude
Exits shadow 12:28:25 51° 26° (NNE) 1,012 4.0 -27.6°
Drops below altitude 10° 12:32:31 10° 357° (N) 2,391 6.4 -28.5°
Sets 12:34:53 0° 354° (N) 3,326 7.2 -29.1°
